Location: Plymouth
(43.7570°N, 71.6890°W)
Time: 07:45:42
(UTC-04:00)

Daily predictions for brighter satellites

Satellite Brightness Start Highest point End
(mag) Time Altitude Azimuth Time Altitude Azimuth Time Altitude Azimuth
Cosmos 1538 Rocket 4.3 20:57:59 10° NNW 21:03:20 77° WSW 21:08:40 10° SSE
Cosmos 1680 Rocket 4.2 20:58:44 10° N 21:03:40 40° ENE 21:08:36 10° SE
Cosmos 923 Rocket 4.3 21:02:19 10° NNW 21:07:27 55° ENE 21:12:32 10° SE
CZ-2C R/B 0.7 21:07:56 10° S 21:09:32 43° W 21:11:10 10° NNW
CZ-4B R/B 4.4 21:08:10 10° NE 21:12:48 30° E 21:17:21 10° SSE
Cosmos 2058 4.3 21:10:32 10° SE 21:13:36 21° E 21:16:40 10° NE
Cosmos 2219 4.2 21:08:50 10° SSE 21:13:38 28° ESE 21:18:26 10° NE
H-2A R/B 2.4 21:12:58 10° S 21:17:30 75° WSW 21:22:03 10° NNW
Cosmos 1328 Rocket 4.2 21:15:29 10° NNW 21:19:51 57° W 21:24:12 10° S
Cosmos 2322 3.9 21:14:49 10° NNW 21:20:32 65° ENE 21:26:12 10° SE
Terra 3.8 21:18:11 10° E 21:20:53 15° ENE 21:23:36 10° NNE
USA 229 DEB 3.7 21:14:02 10° SSW 21:20:55 74° ESE 21:27:55 10° NE
USA 229 3.7 21:14:09 10° SSW 21:21:01 74° ESE 21:28:01 10° NE
Cosmos 2237 Rocket 4.3 21:17:49 10° N 21:21:03 15° NE 21:24:16 10° ENE
Cosmos 1441 Rocket 3.5 21:19:28 10° SSW 21:23:14 70° W 21:27:00 10° N
S3M 4.5 21:18:08 10° NNW 21:24:10 62° W 21:30:10 10° S
Cosmos 2322 Rocket 3.2 21:19:29 10° NW 21:24:46 43° WSW 21:30:01 10° S
Cosmos 1726 3.9 21:22:38 10° NNE 21:25:25 19° ENE 21:28:05 11° ESE
Cosmos 773 Rocket 4.1 21:21:43 10° NNW 21:26:56 81° WSW 21:32:09 10° SSE
CZ-4 SHROUD 3.2 21:25:01 10° SSE 21:28:07 77° ENE 21:31:16 10° N
SL-12 R/B (AUX MOTOR) 4.1 21:30:50 10° WSW 21:32:38 68° NNW 21:34:04 10° ENE
SL-16 R/B 3.4 21:29:32 10° NW 21:34:45 39° WSW 21:39:57 10° S
Cosmos 2360 Rocket 2.2 21:29:30 10° NNW 21:35:11 85° ENE 21:40:35 11° SSE
ATLAS CENTAUR R/B 4.0 21:38:26 10° WNW 21:40:36 13° WSW 21:42:42 10° SW
NOSS 3-1 (A) 4.3 21:36:04 10° SSE 21:40:54 27° ESE 21:46:06 10° NE
SL-23 DEB 4.0 21:35:39 10° WNW 21:41:05 89° NNE 21:43:59 15° ESE
Cosmos 1908 3.7 21:37:57 10° NNW 21:41:48 61° W 21:45:39 10° S
Cosmos 1500 Rocket 4.5 21:37:51 10° SSW 21:42:06 50° WNW 21:46:24 10° N
Aureole 3 4.4 21:43:56 10° S 21:50:46 77° E 21:56:14 10° NNE
MetOp-B 4.3 21:45:40 10° S 21:51:01 78° WSW 21:56:25 10° NNW
Delta 2 Rocket 4.2 21:55:01 10° SW 21:57:35 19° S 21:58:00 19° SSE
Meteor 1-4 Rocket 3.8 21:54:29 10° N 21:57:52 30° ENE 21:59:48 19° ESE
Cosmos 2242 Rocket 4.4 21:54:40 10° N 21:58:51 37° ENE 22:01:35 19° SE
Cosmos 1674 3.8 21:56:02 10° SSW 21:59:42 45° WNW 22:03:26 10° N
Envisat 4.2 21:55:03 10° SSW 21:59:48 40° W 22:04:35 10° NNW
SPOT 5 3.6 21:55:54 10° S 22:00:15 46° W 22:04:52 10° NNW
Cosmos 2227 Rocket 3.7 22:00:43 16° ESE 22:02:33 18° E 22:06:18 10° ENE
ATLAS 2AS CENTAUR R/B 4.2 22:00:49 16° SE 22:03:46 20° ESE 22:09:02 10° ENE
SL-08 RB Rocket 3.7 22:02:37 18° SSE 22:05:53 72° ENE 22:10:22 10° N
Cosmos 1626 4.1 22:05:29 14° E 22:06:12 14° E 22:08:18 10° NE
DELTA 2 DEB (DPAF) 4.4 22:05:05 20° SSE 22:08:05 59° ENE 22:12:31 10° N
Cosmos 1300 2.6 22:04:38 10° N 22:08:30 82° E 22:11:00 21° SSE
Cosmos 2112 Rocket 4.3 22:03:26 10° NNW 22:08:38 67° WSW 22:12:50 16° S
Cosmos 2333 Rocket 3.3 22:03:53 10° N 22:09:05 34° NE 22:13:11 15° ESE
USA 245 2.9 22:10:34 21° S 22:12:01 48° WSW 22:14:21 10° NNW
Cosmos 1437 4.0 22:09:51 10° SSW 22:12:58 42° WNW 22:16:08 10° N
Cosmos 2298 Rocket 4.1 22:07:57 11° S 22:13:02 57° ESE 22:18:14 10° NNE
SL-16 R/B 4.3 22:09:23 10° N 22:13:02 17° NE 22:16:40 10° E
DELTA 2 R/B (1) 4.2 22:08:14 10° W 22:13:21 39° SSW 22:16:24 21° SE
CARTOSAT-1 3.9 22:17:10 24° SE 22:19:32 50° ENE 22:23:44 10° N
Cosmos 2315 Rocket 4.3 22:13:42 10° NNW 22:19:51 64° W 22:25:35 12° S
COSMOS 2428 2.7 22:15:16 10° NNW 22:20:58 85° WSW 22:24:46 22° SSE
Cosmos 1937 Rocket 4.0 22:18:23 21° SSE 22:21:26 41° ESE 22:26:18 10° NE
ATLAS 3B R/B 4.1 22:16:06 10° NNW 22:22:20 31° NE 22:28:13 10° E
Sich 1 3.0 22:20:01 18° S 22:23:12 76° E 22:27:37 10° NNE
Cosmos 1633 Rocket 3.0 22:21:04 20° S 22:24:05 73° E 22:28:28 10° NNE
Cosmos 2151 4.4 22:20:29 10° SW 22:24:23 37° WNW 22:28:19 10° N
YAOGAN 6 4.2 22:23:27 12° SSW 22:26:24 30° W 22:29:39 10° NNW
NOSS 3-1 (C) 3.3 22:22:25 10° SSW 22:28:15 75° ESE 22:34:48 10° NE
Cosmos 2297 Rocket 3.5 22:28:39 20° ESE 22:29:54 21° E 22:34:04 10° NE
CZ-4C R/B 3.0 22:29:16 30° S 22:30:52 79° WSW 22:34:21 10° NNW
Cosmos 1455 3.2 22:27:52 10° N 22:31:20 33° ENE 22:32:31 27° ESE
H-2A R/B 2.1 22:29:35 24° SSE 22:32:53 78° ENE 22:38:20 10° N
Cosmos 2219 Rocket 2.3 22:32:00 10° NNW 22:37:36 68° ENE 22:40:42 27° SE
Cosmos 1805 Rocket 4.5 22:33:52 10° SSW 22:38:10 47° WNW 22:42:29 10° N
Lacrosse 4 Rocket 3.8 22:37:15 10° N 22:40:10 17° NE 22:43:05 10° E
ARGOS 3.9 22:37:03 16° S 22:41:11 48° W 22:46:24 10° NNW
Landsat 7 4.0 22:39:24 24° S 22:42:12 69° WSW 22:46:58 10° NNW
Nadezhda 1 Rocket 3.9 22:43:07 10° N 22:49:13 77° E 22:52:38 28° SSE
Cosmos 292 Rocket 3.7 22:46:45 10° NNW 22:51:32 78° WSW 22:53:38 33° S
Cosmos 1980 3.8 22:47:17 10° NNW 22:52:56 66° ENE 22:55:44 30° SE
Spot 4 3.8 22:52:29 33° SSE 22:54:44 87° ENE 22:59:37 10° NNW
Cosmos 2219 4.2 22:52:00 10° SW 22:57:31 47° WNW 23:03:05 10° NNE
Terra 2.0 22:55:46 30° S 22:58:04 69° WSW 23:02:50 10° NNW
SAR-Lupe-2 3.6 22:57:19 44° S 22:58:18 69° WSW 23:01:54 10° NNW
COSMOS 2455 3.8 22:53:13 10° NNW 22:58:51 38° NE 23:02:41 19° ESE
Cosmos 1703 3.6 22:58:43 28° SSW 23:00:36 61° W 23:04:29 10° N
Cosmos 1726 3.8 22:57:32 10° NNW 23:00:50 28° W 23:02:46 18° SW
Cosmos 1898 Rocket 3.8 22:56:17 11° SSW 23:01:11 65° WNW 23:06:23 10° NNE
Cosmos 1271 Rocket 3.4 22:58:07 10° NNW 23:01:48 46° W 23:03:14 30° SSW
Cosmos 1745 Rocket 4.0 22:57:28 20° SSW 23:01:55 81° W 23:08:09 10° N
Cosmos 2150 Rocket 4.5 22:57:14 10° SSW 23:02:38 63° WNW 23:08:05 10° NNE
Spot 2 4.4 22:59:38 10° NNE 23:04:48 89° ESE 23:07:28 29° SSW
Cosmos 2237 Rocket 2.2 23:00:23 10° NNW 23:06:08 76° ENE 23:08:42 34° SE
Cosmos 1346 2.9 23:07:04 88° SSW 23:07:06 90° W 23:10:09 10° N
Cosmos 1125 Rocket 4.3 23:06:14 30° ESE 23:07:14 32° E 23:11:56 10° NE
Cosmos 2082 3.7 23:07:20 31° S 23:10:03 63° ESE 23:15:43 10° NNE
Cosmos 1709 Rocket 4.2 23:07:48 32° SSE 23:10:25 54° E 23:16:21 10° NNE
CZ-4B R/B 4.0 23:10:23 12° ENE 23:11:02 12° ENE 23:12:30 10° NE
DMSP B5D2-2 4.3 23:06:34 10° N 23:11:47 70° WNW 23:15:09 22° SSW
Cosmos 1470 Rocket 3.7 23:11:47 32° SSW 23:13:41 66° W 23:18:00 10° N
Cosmos 220 Rocket 4.3 23:12:12 25° SW 23:14:41 67° WNW 23:19:07 10° NNE
Cosmos 1933 Rocket 3.8 23:13:06 32° SSW 23:15:07 67° W 23:19:35 10° N
IGS 5A 4.2 23:14:41 31° SSW 23:16:09 44° W 23:20:10 10° NNW
Cosmos 1703 Rocket 4.1 23:12:15 10° N 23:16:27 44° ENE 23:17:24 38° ESE
Cosmos 2221 Rocket 4.3 23:12:33 10° N 23:16:56 44° ENE 23:18:03 36° ESE
SeaSat 1 2.8 23:15:33 32° ESE 23:17:36 56° ENE 23:22:26 10° NNW
Okean 1-7 4.2 23:14:08 10° NNE 23:17:52 28° ENE 23:18:43 26° E
Cosmos 2360 Rocket 4.5 23:15:39 10° WNW 23:18:22 14° W 23:21:05 10° SW
Cosmos 1933 3.6 23:17:56 10° N 23:21:56 54° E 23:22:33 48° ESE
NOSS 0 Rocket 4.2 23:24:50 10° NW 23:30:50 55° WSW 23:33:20 34° S
Cosmos 2181 Rocket 4.1 23:24:36 10° N 23:31:00 74° E 23:33:42 37° SSE
NOSS 3-1 (A) 4.0 23:25:23 10° SW 23:31:16 58° NW 23:37:51 10° NNE
Cosmos 192 4.4 23:33:53 10° NNW 23:38:46 68° WSW 23:40:02 47° S
CZ-4C R/B 3.8 23:40:39 39° ENE 23:40:40 39° ENE 23:44:01 10° N
Cosmos 1626 3.3 23:40:11 30° WSW 23:41:16 37° WNW 23:44:48 10° N
Cosmos 2227 Rocket 2.4 23:42:28 24° SW 23:45:59 67° WNW 23:51:40 10° NNE
ERBS 2.9 23:51:23 52° NE 23:51:23 52° NE 23:54:07 10° NE
Cosmos 2333 Rocket 3.0 23:48:06 10° NW 23:53:25 40° WSW 23:55:11 32° SW
